Wind_Speed
24 26 25 17 18 17 14 12 13 13 15 15 15 15 14 13 12 11 10 9 9 9 11 12 12 13 14 12 11 16 19 12
27 28 15 17 17 15 14 13 13 14 16 17 16 14 12 11 7 7 6 7 8 9 12 10 10 11 8 9 7 10 14 15
21 23 18 17 17 16 14 14 15 18 17 15 14 10 10 10 11 9 9 10 8 10 12 9 5 10 13 10 12 13 13 14
23 20 18 16 15 15 17 18 19 20 16 13 9 8 7 10 9 8 11 6 6 8 6 8 8 7 9 13 13 13 11 11
24 23 20 16 17 22 17 16 16 18 13 13 10 9 9 5 3 6 4 5 1 2 2 4 3 5 9 13 16 15 11 16
27 24 19 20 22 21 20 19 17 17 14 14 11 11 7 7 5 5 3 3 3 4 6 9 10 11 10 9 10 12 13 14
28 24 19 19 19 24 17 16 14 12 10 9 8 6 2 6 11 9 11 7 9 11 12 12 10 9 8 9 11 12 13 14
31 27 24 24 26 20 18 16 12 8 6 6 7 4 8 8 10 10 7 6 9 10 10 10 14 17 14 15 16 17 17 14
28 27 26 23 22 22 19 19 11 3 6 4 7 3 0 2 4 7 6 5 6 10 14 16 17 15 16 20 15 14 16 17
26 25 27 22 19 20 24 22 3 7 6 6 3 3 5 4 2 3 5 8 12 13 15 13 14 20 22 19 13 15 18 18
22 23 23 20 18 21 25 14 6 4 1 5 6 6 4 0 2 7 9 10 11 13 15 18 23 25 22 20 15 14 15 12
22 24 23 19 19 24 23 11 4 4 9 7 5 3 3 4 6 7 9 12 15 16 19 22 22 21 23 19 16 12 14 13
22 21 21 20 20 25 19 12 12 11 7 5 5 4 5 8 8 12 15 17 19 21 22 21 21 21 20 21 21 18 9 12
22 20 15 18 16 19 13 16 15 9 8 9 9 7 6 9 12 15 16 18 20 19 19 21 17 16 19 19 12 21 6 10
18 20 17 19 20 18 20 18 16 14 11 10 8 7 8 13 15 17 18 21 21 22 21 18 17 16 17 14 9 5 21 11
15 15 22 24 22 22 25 24 22 18 14 12 10 10 13 17 20 19 20 20 20 21 20 19 20 22 18 14 16 16 17 15
9 25 21 22 29 25 23 22 21 22 22 16 9 11 15 19 20 19 18 19 18 15 15 16 18 16 16 17 18 20 19 17
21 24 29 30 25 26 25 27 28 24 19 13 11 15 18 16 15 16 17 16 15 14 15 17 19 20 20 23 17 12 13 14
28 31 28 28 26 27 26 24 21 18 14 14 17 16 13 14 15 16 15 14 15 15 16 20 21 22 20 13 14 13 15 17
27 27 27 28 28 27 24 21 18 16 15 15 14 11 11 13 14 14 15 12 13 17 19 19 14 15 14 15 16 17 14 13
Wind_Direction
123 125 111 146 132 133 127 120 120 122 120 114 113 111 113 113 112 108 98 84 74 58 49 44 45 37 48 45 33 35 18 11
105 112 141 134 133 131 123 116 115 115 117 115 111 114 111 108 106 99 86 64 50 48 41 52 36 35 37 38 13 14 357 4
138 141 146 144 137 121 117 116 121 119 116 118 116 114 104 80 68 68 52 47 50 47 42 19 19 356 344 348 335 340 337 327
145 146 153 136 130 131 127 125 123 126 118 118 104 96 69 74 61 59 42 58 71 50 39 37 7 14 347 342 336 341 326 315
156 152 139 146 142 138 134 131 127 135 133 127 123 145 134 136 118 109 83 53 342 71 6 316 330 340 347 345 337 337 320 322
152 143 128 130 130 131 132 133 137 148 154 158 167 160 172 171 162 179 301 253 240 267 288 282 287 301 324 352 341 340 343 332
148 150 145 150 155 153 147 139 154 157 167 175 173 169 200 234 227 241 311 259 268 278 306 310 308 316 303 290 298 314 314 316
153 154 163 165 164 163 155 155 169 167 212 218 183 203 287 240 241 275 294 294 283 299 320 308 308 302 291 295 302 303 292 291
162 160 175 172 176 173 173 173 185 293 289 259 349 337 257 187 243 272 298 306 304 296 289 299 300 288 302 313 320 307 301 296
165 170 177 180 183 177 180 186 257 313 275 300 3 89 130 180 239 337 311 291 288 292 301 301 298 303 314 323 312 309 306 304
168 172 184 184 188 188 188 202 249 242 275 176 163 145 136 117 301 285 286 281 286 293 297 300 306 315 320 320 317 320 331 318
174 179 190 190 190 189 191 221 222 210 162 183 150 128 129 235 263 290 304 303 303 296 298 306 314 313 311 310 309 287 313 311
185 189 195 196 189 195 200 201 188 178 179 188 205 225 199 207 245 274 285 295 301 304 307 312 312 314 311 306 306 312 283 283
193 197 201 201 191 182 193 173 178 197 199 213 198 230 272 300 297 299 303 305 311 313 313 313 314 305 308 309 323 313 288 280
197 198 198 182 160 166 169 173 188 197 207 218 203 230 267 287 296 301 305 311 312 312 311 311 307 302 300 304 324 313 324 311
200 199 171 162 167 183 185 188 188 198 210 186 205 259 294 307 298 292 298 299 298 299 300 300 292 293 294 280 280 301 333 325
195 159 169 172 176 189 193 195 204 192 183 190 223 279 283 275 274 292 297 303 304 305 299 295 291 290 294 294 293 295 293 296
179 173 171 176 185 194 197 198 195 191 198 224 262 276 271 281 291 301 308 311 312 307 298 295 293 293 296 303 294 300 298 298
182 181 184 192 192 193 201 202 202 212 225 256 272 276 279 285 296 305 314 313 308 305 301 298 290 299 303 298 285 281 280 285
191 198 205 207 206 205 205 208 213 224 252 263 270 268 274 286 298 310 309 300 298 301 299 314 310 307 307 301 287 264 276 281
Height
1544 1549 1556 1556 1557 1562 1565 1567 1568 1569 1572 1575 1576 1578 1580 1582 1583 1583 1584 1586 1586 1588 1588 1587 1586 1587 1587 1584 1585 1584 1581 1579
1543 1550 1556 1557 1561 1563 1563 1566 1569 1572 1574 1574 1577 1579 1580 1582 1583 1583 1585 1586 1588 1588 1588 1588 1586 1586 1586 1584 1585 1584 1581 1579
1550 1548 1556 1560 1562 1562 1564 1567 1571 1573 1574 1575 1578 1579 1581 1583 1584 1585 1587 1587 1588 1589 1588 1588 1586 1585 1585 1584 1584 1582 1582 1579
1549 1553 1558 1559 1562 1563 1565 1568 1571 1574 1574 1576 1577 1579 1580 1582 1584 1586 1587 1586 1587 1586 1586 1585 1586 1583 1583 1583 1583 1579 1579 1578
1553 1558 1559 1561 1562 1563 1565 1569 1572 1574 1573 1575 1578 1579 1581 1581 1583 1585 1585 1586 1585 1585 1584 1585 1584 1583 1582 1581 1580 1578 1577 1576
1554 1557 1558 1562 1563 1564 1566 1568 1571 1572 1573 1575 1576 1578 1581 1582 1583 1584 1585 1584 1583 1584 1583 1583 1582 1580 1580 1579 1578 1577 1575 1573
1553 1557 1559 1562 1563 1565 1567 1569 1568 1570 1574 1574 1576 1579 1580 1581 1581 1582 1582 1582 1581 1581 1580 1579 1578 1578 1578 1576 1575 1575 1573 1571
1554 1557 1560 1562 1564 1566 1567 1567 1569 1571 1574 1573 1575 1577 1578 1577 1578 1579 1580 1579 1578 1579 1578 1576 1575 1574 1574 1573 1573 1571 1568 1568
1553 1557 1559 1562 1563 1565 1567 1567 1568 1570 1570 1571 1572 1573 1573 1574 1575 1577 1577 1576 1576 1575 1574 1573 1571 1571 1570 1569 1567 1565 1564 1563
1551 1556 1557 1560 1562 1564 1566 1567 1568 1568 1569 1570 1570 1571 1573 1573 1574 1574 1576 1575 1573 1572 1570 1569 1568 1566 1565 1564 1562 1561 1560 1560
1549 1553 1555 1558 1560 1563 1566 1566 1569 1569 1568 1569 1571 1571 1571 1571 1572 1574 1574 1572 1570 1568 1567 1565 1563 1560 1558 1558 1558 1557 1556 1556
1546 1549 1552 1555 1558 1562 1565 1565 1568 1568 1568 1567 1568 1568 1570 1571 1571 1570 1569 1568 1566 1565 1563 1561 1559 1556 1554 1553 1553 1554 1553 1552
1540 1543 1548 1552 1555 1558 1562 1564 1566 1565 1565 1565 1566 1567 1569 1570 1570 1569 1567 1565 1563 1561 1558 1556 1555 1552 1549 1548 1548 1548 1549 1547
1539 1542 1545 1550 1552 1556 1559 1561 1562 1563 1564 1564 1566 1567 1567 1566 1565 1564 1563 1561 1559 1557 1555 1552 1551 1549 1547 1545 1542 1543 1543 1544
1537 1540 1543 1547 1550 1554 1557 1559 1561 1561 1561 1562 1563 1563 1562 1562 1561 1560 1558 1556 1554 1553 1551 1549 1547 1546 1546 1545 1541 1540 1538 1539
1536 1539 1541 1544 1547 1550 1552 1554 1555 1557 1558 1559 1558 1560 1560 1558 1556 1555 1554 1553 1551 1549 1548 1547 1544 1542 1543 1543 1542 1539 1536 1534
1534 1538 1540 1542 1545 1547 1549 1551 1551 1552 1553 1556 1558 1558 1557 1555 1553 1552 1551 1549 1547 1545 1545 1543 1541 1540 1539 1539 1539 1538 1537 1534
1535 1537 1538 1540 1542 1542 1544 1545 1546 1549 1553 1555 1555 1553 1551 1550 1549 1548 1547 1545 1543 1543 1542 1541 1540 1538 1537 1536 1535 1534 1532 1530
1533 1534 1535 1537 1539 1540 1541 1543 1547 1549 1550 1551 1550 1548 1547 1547 1546 1545 1543 1542 1541 1541 1539 1537 1535 1534 1532 1531 1530 1529 1527 1526
1531 1532 1533 1535 1537 1539 1541 1543 1545 1546 1547 1546 1545 1545 1545 1543 1543 1541 1540 1539 1538 1537 1535 1533 1532 1530 1529 1529 1527 1526 1524 1521